Location: Pcim
(49.7500°N, 19.9670°E)
Time: 11:52:27
(UTC+02:00)

NOAA 18 - Pass Details

Date: 01 May 2024
Orbit: 838 x 858 km, 98.9° (Epoch: 08 September)

Event Time Altitude Azimuth Distance (km) Brightness Sun altitude
Exits shadow 00:01:11 18° 244° (WSW) 1,978 6.9 -24.6°
Maximum altitude 00:03:00 21° 270° (W) 1,833 7.0 -24.7°
Drops below altitude 10° 00:07:09 10° 318° (NW) 2,499 8.4 -24.8°
Sets 00:10:08 0° 334° (NNW) 3,437 9.6 -24.8°
